• In Belgium
  • List of Countries
  • For 7 days
  • Water Temperature
  • Satellite Maps
  • Weather Map
  • Weather Widgets
  • user-avatar
    Login

    Hourly Weather Iraklion

    Today, 12 December, Tuesday

    Time Temperature Precipitation Wind Pressure Humidity
    00:00 +12°C° 0 mm 0 mps 761 mmHg 72%
    01:00 +13°C° 0 mm 1 mps 761 mmHg 75%
    02:00 +13°C° 0 mm 1 mps 761 mmHg 78%
    03:00 +13°C° 0 mm 1 mps 761 mmHg 78%
    04:00 +13°C° 0 mm 1 mps 761 mmHg 79%
    05:00 +13°C° 0 mm 1 mps 761 mmHg 80%
    06:00 +13°C° 0 mm 1 mps 761 mmHg 80%
    07:00 +13°C° 0 mm 1 mps 761 mmHg 81%
    08:00 +14°C° 0 mm 1 mps 761 mmHg 81%
    09:00 +15°C° 0 mm 1 mps 761 mmHg 74%
    10:00 +18°C° 0 mm 1 mps 761 mmHg 68%
    11:00 +19°C° 0 mm 1 mps 761 mmHg 61%
    12:00 +20°C° 0 mm 1 mps 761 mmHg 60%
    13:00 +20°C° 0 mm 1 mps 761 mmHg 59%
    14:00 +20°C° 0 mm 1 mps 761 mmHg 58%
    15:00 +20°C° 0 mm 1 mps 761 mmHg 62%
    16:00 +19°C° 0 mm 1 mps 761 mmHg 67%
    17:00 +18°C° 0 mm 1 mps 761 mmHg 72%
    18:00 +18°C° 0 mm 1 mps 761 mmHg 73%
    19:00 +16°C° 0 mm 1 mps 761 mmHg 75%
    20:00 +15°C° 0 mm 1 mps 761 mmHg 76%
    21:00 +15°C° 0 mm 1 mps 761 mmHg 77%
    22:00 +15°C° 0 mm 2 mps 761 mmHg 78%
    23:00 +15°C° 0 mm 2 mps 761 mmHg 79%

    Tomorrow, 13 December, Wednesday

    Time Temperature Precipitation Wind Pressure Humidity
    00:00 +15°C° 0 mm 2 mps 761 mmHg 78%
    01:00 +14°C° 0 mm 2 mps 761 mmHg 78%
    02:00 +14°C° 0 mm 2 mps 761 mmHg 78%
    03:00 +14°C° 0 mm 2 mps 761 mmHg 78%
    04:00 +13°C° 0 mm 3 mps 761 mmHg 77%
    05:00 +13°C° 0 mm 3 mps 760 mmHg 76%
    06:00 +13°C° 0 mm 3 mps 761 mmHg 75%
    07:00 +13°C° 0 mm 3 mps 761 mmHg 74%
    08:00 +13°C° 0 mm 3 mps 761 mmHg 74%
    09:00 +16°C° 0 mm 3 mps 761 mmHg 68%
    10:00 +18°C° 0 mm 3 mps 761 mmHg 62%
    11:00 +19°C° 0 mm 3 mps 761 mmHg 56%
    12:00 +20°C° 0 mm 4 mps 761 mmHg 56%
    13:00 +20°C° 0 mm 4 mps 760 mmHg 56%
    14:00 +20°C° 0 mm 5 mps 760 mmHg 56%
    15:00 +19°C° 0 mm 5 mps 759 mmHg 62%
    16:00 +19°C° 0 mm 5 mps 759 mmHg 68%
    17:00 +17°C° 0 mm 5 mps 759 mmHg 74%
    18:00 +16°C° 0 mm 5 mps 759 mmHg 77%
    19:00 +17°C° 0 mm 4 mps 759 mmHg 80%
    20:00 +15°C° 0 mm 4 mps 759 mmHg 83%
    21:00 +15°C° 0 mm 4 mps 759 mmHg 83%
    22:00 +14°C° 0 mm 4 mps 759 mmHg 84%
    23:00 +14°C° 0 mm 5 mps 759 mmHg 84%

    Day after tomorrow, 14 December, Thursday

    Time Temperature Precipitation Wind Pressure Humidity
    00:00 +14°C° 0 mm 5 mps 759 mmHg 84%
    01:00 +14°C° 0 mm 5 mps 758 mmHg 83%
    02:00 +14°C° 0 mm 5 mps 758 mmHg 83%
    03:00 +14°C° 0 mm 5 mps 758 mmHg 83%
    04:00 +14°C° 0 mm 5 mps 757 mmHg 83%
    05:00 +14°C° 0 mm 6 mps 757 mmHg 83%
    06:00 +14°C° 0 mm 6 mps 757 mmHg 82%
    07:00 +14°C° 0 mm 6 mps 757 mmHg 82%
    08:00 +14°C° 0 mm 6 mps 758 mmHg 82%
    09:00 +16°C° 0 mm 6 mps 758 mmHg 75%
    10:00 +17°C° 0 mm 6 mps 758 mmHg 69%
    11:00 +19°C° 0 mm 6 mps 758 mmHg 63%
    12:00 +20°C° 0 mm 6 mps 757 mmHg 61%
    13:00 +20°C° 0 mm 6 mps 757 mmHg 59%
    14:00 +21°C° 0 mm 7 mps 756 mmHg 57%
    15:00 +20°C° 0 mm 6 mps 756 mmHg 62%
    16:00 +19°C° 0 mm 6 mps 756 mmHg 67%
    17:00 +17°C° 0 mm 5 mps 756 mmHg 72%
    18:00 +16°C° 0 mm 5 mps 756 mmHg 74%
    19:00 +16°C° 0 mm 5 mps 756 mmHg 77%
    20:00 +15°C° 0 mm 6 mps 756 mmHg 79%
    21:00 +15°C° 0 mm 6 mps 756 mmHg 80%
    22:00 +15°C° 0 mm 6 mps 756 mmHg 80%
    23:00 +15°C° 0 mm 6 mps 756 mmHg 81%

    15 December, Friday

    Time Temperature Precipitation Wind Pressure Humidity
    00:00 +14°C° 0 mm 6 mps 756 mmHg 81%
    01:00 +14°C° 0 mm 6 mps 756 mmHg 80%
    02:00 +14°C° 0 mm 6 mps 756 mmHg 80%
    03:00 +13°C° 0 mm 5 mps 756 mmHg 80%
    04:00 +13°C° 0 mm 5 mps 755 mmHg 80%
    05:00 +13°C° 0 mm 5 mps 755 mmHg 80%
    06:00 +13°C° 0 mm 5 mps 756 mmHg 80%
    07:00 +13°C° 0 mm 4 mps 756 mmHg 79%
    08:00 +13°C° 0 mm 4 mps 756 mmHg 79%
    09:00 +14°C° 0 mm 4 mps 756 mmHg 73%
    10:00 +17°C° 0 mm 4 mps 757 mmHg 67%
    11:00 +18°C° 0 mm 4 mps 757 mmHg 62%
    12:00 +18°C° 0 mm 4 mps 757 mmHg 62%
    13:00 +19°C° 0 mm 4 mps 756 mmHg 62%
    14:00 +19°C° 0 mm 4 mps 756 mmHg 62%
    15:00 +18°C° 0 mm 4 mps 756 mmHg 66%
    16:00 +18°C° 0 mm 4 mps 756 mmHg 70%
    17:00 +17°C° 0 mm 3 mps 756 mmHg 74%
    18:00 +17°C° 0 mm 3 mps 756 mmHg 77%
    19:00 +16°C° 0 mm 3 mps 757 mmHg 79%
    20:00 +16°C° 0 mm 3 mps 757 mmHg 82%
    21:00 +16°C° 0 mm 3 mps 757 mmHg 82%
    22:00 +14°C° 0 mm 3 mps 757 mmHg 82%
    23:00 +14°C° 0 mm 3 mps 757 mmHg 82%

    16 December, Saturday

    Time Temperature Precipitation Wind Pressure Humidity
    00:00 +14°C° 0 mm 3 mps 757 mmHg 82%
    01:00 +14°C° 0 mm 3 mps 757 mmHg 82%
    02:00 +14°C° 0 mm 3 mps 757 mmHg 82%
    03:00 +14°C° 0 mm 3 mps 757 mmHg 82%
    04:00 +14°C° 0 mm 3 mps 757 mmHg 82%
    05:00 +14°C° 0 mm 3 mps 757 mmHg 81%
    06:00 +14°C° 0 mm 3 mps 757 mmHg 81%
    07:00 +14°C° 0 mm 3 mps 758 mmHg 81%
    08:00 +14°C° 0 mm 3 mps 758 mmHg 81%
    09:00 +16°C° 0 mm 3 mps 758 mmHg 76%
    10:00 +18°C° 0 mm 3 mps 758 mmHg 71%
    11:00 +19°C° 0 mm 4 mps 758 mmHg 66%
    12:00 +19°C° 0 mm 4 mps 757 mmHg 67%
    13:00 +19°C° 0 mm 4 mps 757 mmHg 67%
    14:00 +19°C° 0 mm 4 mps 757 mmHg 68%
    15:00 +18°C° 0 mm 3 mps 757 mmHg 71%
    16:00 +18°C° 0 mm 3 mps 757 mmHg 75%
    17:00 +17°C° 0 mm 3 mps 757 mmHg 78%
    18:00 +16°C° 0 mm 3 mps 757 mmHg 81%
    19:00 +16°C° 0 mm 3 mps 757 mmHg 84%
    20:00 +14°C° 0 mm 4 mps 757 mmHg 87%
    21:00 +14°C° 0 mm 4 mps 757 mmHg 87%
    22:00 +14°C° 0 mm 3 mps 757 mmHg 88%
    23:00 +14°C° 0 mm 3 mps 757 mmHg 88%

    17 December, Sunday

    Time Temperature Precipitation Wind Pressure Humidity
    00:00 +14°C° 0 mm 3 mps 757 mmHg 88%
    01:00 +14°C° 0 mm 3 mps 757 mmHg 88%
    02:00 +14°C° 0 mm 3 mps 757 mmHg 89%
    03:00 +14°C° 0.2 mm 4 mps 756 mmHg 87%
    04:00 +15°C° 0.2 mm 5 mps 756 mmHg 86%
    05:00 +15°C° 0.2 mm 5 mps 755 mmHg 85%
    06:00 +15°C° 0.3 mm 5 mps 755 mmHg 85%
    07:00 +15°C° 0.3 mm 5 mps 755 mmHg 86%
    08:00 +15°C° 0.3 mm 6 mps 755 mmHg 87%
    09:00 +16°C° 0 mm 6 mps 755 mmHg 84%
    10:00 +17°C° 0 mm 7 mps 755 mmHg 81%
    11:00 +17°C° 0 mm 7 mps 755 mmHg 78%
    12:00 +17°C° 0 mm 7 mps 755 mmHg 78%
    13:00 +17°C° 0 mm 6 mps 754 mmHg 77%
    14:00 +17°C° 0 mm 6 mps 754 mmHg 76%
    15:00 +17°C° 0 mm 6 mps 754 mmHg 78%
    16:00 +17°C° 0 mm 5 mps 754 mmHg 80%
    17:00 +16°C° 0 mm 5 mps 754 mmHg 82%
    18:00 +16°C° 0 mm 5 mps 754 mmHg 82%
    19:00 +16°C° 0 mm 5 mps 754 mmHg 83%
    20:00 +15°C° 0 mm 5 mps 754 mmHg 83%
    21:00 +15°C° 0 mm 5 mps 754 mmHg 84%
    22:00 +15°C° 0 mm 5 mps 754 mmHg 85%
    23:00 +15°C° 0 mm 5 mps 754 mmHg 85%
    Show more